Regional Weather Roundup
Issued by NWS

Home | Current Version | Previous Version | Text Only | Print | Product List | Glossary Off
Versions: 1 2 3 4 5 6 7 8 9 10 11 12 13 14 15 16 17 18 19 20 21 22 23 24 25 26 27 28 29 30 31 32 33 34 35 36 37 38 39 40 41 42 43 44 45 46 47 48 49 50

000
ASUS43 KLSX 250959
RWRMO

WEATHER SUMMARY FOR MISSOURI
NATIONAL WEATHER SERVICE SPRINGFIELD MO
500 AM CDT THU MAY 25 2017

NOTE: "FAIR" INDICATES FEW OR NO CLOUDS BELOW 12,000 FEET WITH NO
       SIGNIFICANT WEATHER AND/OR OBSTRUCTIONS TO VISIBILITY.
       CURRENT SKY AND/OR WEATHER CONDITIONS ARE NOT AVAILABLE FOR
       CHILLICOTHE AND FARMINGTON.

MOZ001>031-035>038-043-044-053-054-251100-
...NORTHERN AND WESTERN MISSOURI...

CITY           SKY/WX    TMP DP  RH WIND       PRES   REMARKS
KANSAS CTY INT CLEAR     48  45  89 SE7       29.69S
KANSAS C DTWN  CLEAR     50  49  96 CALM      29.69S
LEE`S SUMMIT   CLEAR     50  47  89 CALM      29.70F
ST JOSEPH      FOG       44  44 100 CALM      29.69S VSB 1/4
CHILLICOTHE      N/A     45  43  93 CALM      29.71R
KIRKSVILLE     FOG       43  42  97 NW3       29.70R VSB 1/4

$$
MOZ066>068-077>081-088>096-101>105-251100-
...SOUTHWEST MISSOURI...

CITY           SKY/WX    TMP DP  RH WIND       PRES   REMARKS
SPRINGFIELD    CLEAR     48  46  93 CALM      29.72S
JOPLIN         CLEAR     48  47  96 S6        29.73R

$$
MOZ032>034-039>042-045>050-055>058-069>072-251100-
...CENTRAL MISSOURI...

CITY           SKY/WX    TMP DP  RH WIND       PRES   REMARKS
COLUMBIA       CLEAR     50  49  96 W7        29.70R
JEFFERSON CITY CLEAR     51  48  89 NW3       29.70R
ROLLA          CLEAR     47  46  97 CALM      29.69R
SEDALIA        CLEAR     50  50 100 SW7       29.72R
WARRENSBURG    CLEAR     45  45 100 SE3       29.70S
OSAGE BEACH    PTCLDY    46  45  96 CALM      29.72R FOG

$$
MOZ051-052-059>065-251100-
...EAST CENTRAL MISSOURI...

CITY           SKY/WX    TMP DP  RH WIND       PRES   REMARKS
ST LOUIS INTL  PTCLDY    56  51  84 W9        29.65R
SPIRIT OF STL  CLEAR     51  51 100 SW6       29.66R
ST CHARLES     CLEAR     54  53  97 W7        29.64S

$$
MOZ072>076-082>087-097>100-106>115-251100-
...SOUTH CENTRAL AND SOUTHEAST MISSOURI...

CITY           SKY/WX    TMP DP  RH WIND       PRES   REMARKS
CAPE GIRARDEAU CLEAR     51  48  89 W7        29.65R
FARMINGTON     CLEAR     50  48  93 W3        29.68R
POPLAR BLUFF   CLEAR     51  49  92 W6        29.68R
WEST PLAINS    CLEAR     46  45  96 W6        29.73R

$$



USA.gov is the U.S. government's official web portal to all federal, state and local government web resources and services.